Regional Weather Roundup
Issued by NWS Upton, NY

Current Version | Previous Version | Graphics & Text | Print | Product List | Glossary Off
Versions: 1 2 3 4 5 6 7 8 9 10 11 12 13 14 15 16 17 18 19 20 21 22 23 24 25 26 27 28 29 30 31 32 33 34 35 36 37 38 39 40 41 42 43 44 45 46 47 48 49 50

000
ASUS41 KOKX 072004
RWROKX

REGIONAL WEATHER ROUNDUP
NATIONAL WEATHER SERVICE NEW YORK NY
300 PM EST SUN FEB 07 2016

NOTE: "FAIR" INDICATES FEW OR NO CLOUDS BELOW 12,000 FEET WITH NO
SIGNIFICANT WEATHER AND/OR OBSTRUCTIONS TO VISIBILITY.

NYZ071-072-176-178-NJZ106-104-072100-
NEW YORK CITY METRO AREA


CITY           SKY/WX    TMP DP  RH WIND       PRES   REMARKS
CENTRAL PARK   PTSUNNY   46  21  37 VRB6      30.08F
LAGUARDIA APRT PTSUNNY   45  24  43 NE8       30.06F
KENNEDY INTL   PTSUNNY   43  25  49 E7        30.07F
NEWARK/LIBERTY PTSUNNY   46  23  40 VRB3      30.06F
BRNX BOT. GARD   N/A     45  19  36 SE6       30.07F
TETERBORO      MOSUNNY   47  19  33 E3        30.05F
$$

NYZ177-179-078>081-072100-
LONG ISLAND NEW YORK

CITY           SKY/WX    TMP DP  RH WIND       PRES   REMARKS
FARMINGDALE    MOSUNNY   43  26  51 E5        30.07F
ISLIP          CLOUDY    41  27  57 E3        30.06F
SHIRLEY        CLOUDY    42  28  57 CALM      30.08F
RIVERHEAD        N/A     34  27  75 W1        30.21S
WESTHAMPTON    CLOUDY    42  27  55 NE5       30.10F
EAST HAMPTON   FAIR      40  27  61 E3        30.10F
MONTAUK POINT    N/A     42  30  62 NE6       30.11F
$$

NYZ052-065-067-072100-
HUDSON VALLEY

CITY           SKY/WX    TMP DP  RH WIND       PRES   REMARKS
WHITE PLAINS   CLOUDY    42  19  39 SE6       30.05F
NEWBURGH       NOT AVBL
MONTGOMERY     SUNNY     48  20  32 E3        30.04F
POUGHKEEPSIE   SUNNY     49  18  29 NW5       30.06F
ALBANY         MOSUNNY   45  19  35 CALM      30.07F
$$

NJZ001-105-106-008-010-013-015-019>022-104-072100-
NEW JERSEY

CITY           SKY/WX    TMP DP  RH WIND       PRES   REMARKS
NEWARK/LIBERTY PTSUNNY   46  23  40 VRB3      30.06F
TETERBORO      MOSUNNY   47  19  33 E3        30.05F
CALDWELL       CLOUDY    46  22  38 E5        30.06F
MORRISTOWN     PTSUNNY   46  19  34 CALM      30.06F
SOMERVILLE     CLOUDY    45  22  40 SE3       30.03F
SUSSEX         SUNNY     47  21  35 CALM      30.04F
ANDOVER          N/A     46  18  32 CALM      30.03F
TRENTON        MOSUNNY   44  21  40 E6        30.03F
MILLVILLE      CLOUDY    45  23  42 N10       30.01F
ATLANTIC CITY  CLOUDY    43  27  53 NE8       30.00F
WRIGHTSTOWN    CLOUDY    41  31  67 NE6       29.99F
TOMS RIVER     CLOUDY    41  27  56 NE8       30.03F
BELMAR         CLOUDY    41  25  52 N5        30.03F
$$

PAZ047>061-062-071-072100-
EASTERN PENNSYLVANIA

CITY           SKY/WX    TMP DP  RH WIND       PRES   REMARKS
PHILADELPHIA   CLOUDY    46  21  37 NE7       30.02F
ALLENTOWN      MOSUNNY   46  19  34 N5        30.04F
SCRANTON       SUNNY     46  23  40 CALM      30.00F
$$

CTZ002-004>006-009-010-012-RIZ004-006-007-MAZ004-011-015-072100-
SOUTHERN NEW ENGLAND
 IN CT

CITY           SKY/WX    TMP DP  RH WIND       PRES   REMARKS
BRADLEY INTL   MOSUNNY   42  20  41 SE5       30.08F
HARTFORD       SUNNY     45  20  36 CALM      30.10F
DANBURY        SUNNY     44  20  38 SE9       30.07F
WTRBRY/OXFORD  SUNNY     43  18  36 S12       30.07F
BRIDGEPORT     CLOUDY    40  27  59 E5        30.09F
MERIDEN        SUNNY     46  21  37 SE5       30.09F
NEW HAVEN      PTSUNNY   37  29  72 S6        30.10F WCI  32
CHESTER        FAIR      43  23  45 SE6       30.09F
GROTON         MOSUNNY   40  33  76 CALM      30.11F
WILLIMANTIC    SUNNY     45  22  40 S3        30.09F

 IN RI

CITY           SKY/WX    TMP DP  RH WIND       PRES   REMARKS
PROVIDENCE     PTSUNNY   40  27  59 S6        30.12F
BLOCK ISLAND   MOSUNNY   39  30  70 NE5       30.10F
WESTERLY       CLOUDY    40  30  67 CALM      30.11F

 IN MA

CITY           SKY/WX    TMP DP  RH WIND       PRES   REMARKS
BOSTON         MOSUNNY   41  26  55 E6        30.14F
WORCESTER      SUNNY     41  20  43 SE8       30.07F
WESTFIELD      SUNNY     44  20  38 S5        30.09S
PROVINCETOWN   SUNNY     41  29  62 E3        30.15F
NANTUCKET      MOSUNNY   42  32  67 N7        30.11F
$$

ANZ330-335-338-340-345-350-353-355-072100-
COASTAL MARINE OBSERVATIONS


STATION/POSITION TIME  SKY/WX   TEMP    WIND        PRES    VSBY  WAVE
                                AIR SEA DIR/SP/G                  HT/PER
                 (UTC)          (F)     (DEG/KT/KT) (MB)    (MI)  (FT/S)
NY HARB ENTRANCE 1850            40 44  110/  4/  6 1019.1          2/10
4S FIRE IS       NOT AVBL
20S FIRE ISLAND  1850            40 43   50/  4/  4 1019.4          2/10
GREAT SOUTH BAY  NOT AVBL
23SW MTP         1950            40 45   40/  4/  6 1018.5          2/10
HUDSON CANYON    1850            44 50              1017.9          3/10
KINGS POINT      1900            45 39  100/  4/  8 1018.4
EXECUTION ROCKS  NOT AVBL
CENTRAL LI SOUND 1900            39     160/  4/  4   N/A           0
EASTERN LI SOUND 1900            41 42  170/  8/ 10   N/A
ROBBINS REEF     1900            42     180/  7/  8 1018.2
$$


>>>>>>>>>>>>>>>>>>>>>>>>>>>> KEY <<<<<<<<<<<<<<<<<<<<<<<<<<<
>                                                          <
>     SKY/WX - SKY CONDITION/PRESENT WEATHER               <
>     TMP    - TEMPERATURE IN FAHRENHEIT                   <
>     DP     - DEWPOINT IN FAHRENHEIT                      <
>     RH     - RELATIVE HUMIDITY IN PERCENT                <
>     WIND   - DIRECTION AND SPEED IN MPH                  <
>     PRES   - MEAN SEA LEVEL PRESSURE IN INCHES OF HG     <
>     WCI    - WIND CHILL INDEX                            <
>     VSB    - VISIBILITY IN MILES                         <
>     HX     - HEAT INDEX                                  <
>     TC     - TEMPERATURE IN CELSIUS                      <
>     VRB    - VARIABLE WIND DIRECTION                     <
>                                                          <
>>>>>>>>>>>>>>>>>>>>>>>>>>>> KEY <<<<<<<<<<<<<<<<<<<<<<<<<<<





USA.gov is the U.S. government's official web portal to all federal, state and local government web resources and services.